Location: Arroyo Retuerta
(40.5469°N, 4.3534°W)
Time: 05:29:41
(UTC+00:00)

Cosmos 1437 Rocket - Pass Details

Date: 01 June 2020
Orbit: 507 x 561 km, 81.2° (Epoch: 05 July)

Event Time Altitude Azimuth Distance (km) Brightness Sun altitude
Exits shadow 21:04:39 11° 183° (S) 1,639 4.8 -13.2°
Maximum altitude 21:08:13 76° 99° (E) 529 2.6 -13.6°
Drops below altitude 10° 21:12:02 10° 13° (NNE) 1,744 5.8 -14.1°
Sets 21:14:11 0° 12° (NNE) 2,642 6.8 -14.4°
